Weather History for Washington, NC

Change the Weather History Date:

Saturday, May 11, 2013

  Actual Average (KEWN) Record (KEWN)
Temperature  
Mean Temperature 76 °F 68 °F  
Max Temperature 83 °F 79 °F 91 °F (1963)
Min Temperature 68 °F 57 °F 37 °F (1966)
Degree Days  
Heating Degree Days 0 1  
Month to date heating degree days 20  
Since 1 July heating degree days 2687  
Cooling Degree Days 10 4  
Month to date cooling degree days 41  
Year to date cooling degree days 111  
Growing Degree Days 26 (Base 50)    
Moisture  
Dew Point 65 °F    
Average Humidity 70    
Maximum Humidity 80    
Minimum Humidity 52    
Precipitation  
Precipitation 0.00 in 0.13 in 0.90 in (1961)
Month to date precipitation 1.36  
Year to date precipitation 16.60  
Snow  
Snow 0.00 in - - ()
Month to date snowfall  
Since 1 July snowfall  
Snow Depth -    
Sea Level Pressure  
Sea Level Pressure 29.91 in    
Wind  
Wind Speed 8 mph (SSW)    
Max Wind Speed 20 mph    
Max Gust Speed 25 mph    
Visibility 10 miles    
Events      
T = Trace of Precipitation, MM = Missing Value Source: NWS Daily Summary

Daily Weather History Graph

Daily Weather History Graph

Search for Another Location

Airport:

Trip Planner

Search our weather history database for the weather conditions in past years. The results will help you decide how hot, cold, wet, or windy it might be!

Date:

Astronomy

May. 11, 2013 Rise Set
Actual Time 6:06 AM EDT 8:03 PM EDT
Civil Twilight 5:38 AM EDT 8:31 PM EDT
Nautical Twilight 5:04 AM EDT 9:05 PM EDT
Astronomical Twilight 4:28 AM EDT 9:41 PM EDT
Moon 7:13 AM EDT (5/11) 9:40 PM EDT (5/11)
Length of Visible Light 14h 52m
Length of Day
13h 56m
Waxing Crescent, 3% of the Moon is Illuminated
May 11
Waxing Crescent
May 18
First Quarter
May 25
Full
May 31
Last Quarter
Jun 8
New

Hourly Weather History & Observations

Time (EDT) Temp. Heat Index Dew Point Humidity Pressure Visibility Wind Dir Wind Speed Gust Speed Precip Events Conditions
12:15 AM 73.0 °F - 64.4 °F 74% 30.02 in 10.0 mi South 4.6 mph - N/A   Clear
12:35 AM 70.7 °F - 62.6 °F 75% 30.01 in 10.0 mi South 4.6 mph - N/A   Clear
12:55 AM 70.7 °F - 62.6 °F 75% 30.01 in 10.0 mi South 4.6 mph - N/A   Clear
1:15 AM 72.5 °F - 64.0 °F 75% 30.01 in 10.0 mi South 8.1 mph - N/A   Clear
1:35 AM 73.0 °F - 63.9 °F 73% 30.01 in 10.0 mi South 8.1 mph 16.1 mph N/A   Clear
1:55 AM 73.0 °F - 64.4 °F 74% 30.00 in 10.0 mi SSW 9.2 mph - N/A   Clear
2:15 AM 71.8 °F - 63.3 °F 75% 29.99 in 10.0 mi South 4.6 mph - N/A   Clear
2:35 AM 70.7 °F - 62.2 °F 75% 29.98 in 10.0 mi South 6.9 mph - N/A   Clear
2:55 AM 70.7 °F - 62.6 °F 75% 29.99 in 10.0 mi South 6.9 mph - N/A   Clear
3:15 AM 70.7 °F - 62.6 °F 75% 29.99 in 10.0 mi South 6.9 mph - N/A   Clear
3:35 AM 70.7 °F - 62.6 °F 75% 29.98 in 10.0 mi SSW 6.9 mph - N/A   Clear
3:55 AM 70.7 °F - 62.6 °F 75% 29.99 in 10.0 mi SSW 6.9 mph - N/A   Clear
4:15 AM 70.7 °F - 62.6 °F 75% 29.98 in 10.0 mi SSW 6.9 mph - N/A   Clear
4:35 AM 70.7 °F - 63.0 °F 76% 29.98 in 10.0 mi SSW 5.8 mph - N/A   Clear
4:55 AM 70.7 °F - 63.5 °F 78% 29.97 in 10.0 mi South 6.9 mph - N/A   Clear
5:15 AM 69.4 °F - 63.0 °F 80% 29.97 in 10.0 mi South 5.8 mph - N/A   Clear
5:35 AM 69.6 °F - 63.1 °F 80% 29.98 in 10.0 mi SSW 5.8 mph - N/A   Clear
5:55 AM 68.2 °F - 61.7 °F 80% 29.98 in 10.0 mi South 4.6 mph - N/A   Clear
6:35 AM 68.0 °F - 61.7 °F 80% 29.99 in 10.0 mi South 4.6 mph - N/A   Clear
6:55 AM 68.0 °F - 61.7 °F 80% 29.99 in 10.0 mi SSW 4.6 mph - N/A   Clear
7:15 AM 68.0 °F - 61.7 °F 80% 29.98 in 10.0 mi South 6.9 mph - N/A   Clear
7:35 AM 70.2 °F - 63.7 °F 80% 29.98 in 10.0 mi SSW 5.8 mph - N/A   Clear
7:55 AM 73.0 °F - 66.4 °F 80% 29.98 in 10.0 mi SSW 6.9 mph - N/A   Clear
8:15 AM 73.0 °F - 66.4 °F 80% 29.98 in 10.0 mi SSW 10.4 mph - N/A   Clear
8:35 AM 73.0 °F - 66.2 °F 79% 29.97 in 10.0 mi SW 9.2 mph - N/A   Clear
8:55 AM 73.2 °F - 66.2 °F 79% 29.97 in 10.0 mi SSW 9.2 mph 18.4 mph N/A   Clear
9:15 AM 74.7 °F - 67.3 °F 78% 29.96 in 10.0 mi SW 12.7 mph 17.3 mph N/A   Clear
9:35 AM 78.1 °F - 69.3 °F 74% 29.95 in 10.0 mi SW 13.8 mph 21.9 mph N/A   Clear
9:55 AM 78.1 °F - 68.2 °F 71% 29.95 in 10.0 mi SSW 15.0 mph 20.7 mph N/A   Clear
10:15 AM 78.1 °F - 67.8 °F 71% 29.95 in 10.0 mi SW 18.4 mph 25.3 mph N/A   Scattered Clouds
10:35 AM 78.1 °F - 67.3 °F 69% 29.94 in 10.0 mi SSW 12.7 mph - N/A   Scattered Clouds
10:55 AM 80.6 °F 83.5 °F 68.7 °F 67% 29.94 in 10.0 mi SSW 13.8 mph 20.7 mph N/A   Scattered Clouds
11:15 AM 80.8 °F 83.5 °F 68.2 °F 65% 29.93 in 10.0 mi SSW 13.8 mph 18.4 mph N/A   Scattered Clouds
11:35 AM 80.8 °F 83.5 °F 68.0 °F 65% 29.92 in 10.0 mi SSW 15.0 mph 25.3 mph N/A   Scattered Clouds
12:15 PM 80.8 °F 83.2 °F 67.1 °F 63% 29.91 in 10.0 mi SW 18.4 mph 23.0 mph N/A   Scattered Clouds
12:35 PM 82.0 °F 84.3 °F 66.4 °F 59% 29.90 in 10.0 mi SW 13.8 mph 25.3 mph N/A   Scattered Clouds
12:55 PM 81.1 °F 82.8 °F 64.6 °F 57% 29.90 in 10.0 mi SW 13.8 mph 23.0 mph N/A   Scattered Clouds
1:15 PM 83.3 °F 85.7 °F 66.4 °F 57% 29.88 in 10.0 mi WSW 15.0 mph - N/A   Scattered Clouds
1:35 PM 83.3 °F 84.6 °F 64.0 °F 52% 29.88 in 10.0 mi WSW 16.1 mph 20.7 mph N/A   Scattered Clouds
1:55 PM 81.3 °F 82.6 °F 63.0 °F 54% 29.88 in 10.0 mi SW 19.6 mph - N/A   Clear
2:15 PM 78.1 °F - 61.9 °F 57% 29.87 in 10.0 mi SW 15.0 mph 20.7 mph N/A   Clear
2:35 PM 79.3 °F - 66.0 °F 64% 29.88 in 10.0 mi South 9.2 mph - N/A   Clear
2:55 PM 78.1 °F - 67.6 °F 70% 29.87 in 10.0 mi South 10.4 mph 19.6 mph N/A   Scattered Clouds
3:35 PM 79.3 °F - 66.7 °F 65% 29.83 in 10.0 mi South 10.4 mph 18.4 mph N/A   Clear
3:55 PM 80.8 °F 83.5 °F 67.8 °F 65% 29.82 in 10.0 mi South 10.4 mph - N/A   Clear
4:15 PM 81.1 °F 82.9 °F 65.3 °F 58% 29.82 in 10.0 mi South 12.7 mph 21.9 mph N/A   Clear
4:35 PM 83.3 °F 85.5 °F 66.2 °F 56% 29.82 in 10.0 mi SSW 8.1 mph 16.1 mph N/A   Clear
4:55 PM 82.8 °F 85.1 °F 66.6 °F 58% 29.81 in 10.0 mi SSW 10.4 mph 16.1 mph N/A   Clear
5:15 PM 82.9 °F 85.2 °F 66.2 °F 57% 29.81 in 10.0 mi South 10.4 mph - N/A   Clear
5:35 PM 81.1 °F 83.7 °F 67.3 °F 63% 29.81 in 10.0 mi South 13.8 mph 17.3 mph N/A   Clear
5:55 PM 80.8 °F 83.6 °F 68.4 °F 66% 29.81 in 10.0 mi SSE 11.5 mph 16.1 mph N/A   Clear
6:15 PM 80.8 °F 84.1 °F 69.8 °F 69% 29.81 in 10.0 mi South 6.9 mph - N/A   Clear
6:35 PM 80.8 °F 83.8 °F 69.1 °F 67% 29.81 in 10.0 mi South 8.1 mph - N/A   Clear
6:55 PM 80.8 °F 83.8 °F 68.7 °F 67% 29.81 in 10.0 mi South 8.1 mph - N/A   Clear
7:15 PM 78.3 °F - 66.6 °F 67% 29.81 in 10.0 mi South 8.1 mph - N/A   Clear
7:35 PM 78.1 °F - 66.7 °F 68% 29.81 in 10.0 mi South 10.4 mph - N/A   Clear
7:55 PM 78.1 °F - 67.3 °F 69% 29.81 in 10.0 mi South 6.9 mph - N/A   Clear
8:15 PM 78.1 °F - 66.9 °F 68% 29.82 in 10.0 mi SSE 6.9 mph - N/A   Clear
8:35 PM 78.1 °F - 66.6 °F 68% 29.82 in 10.0 mi South 5.8 mph - N/A   Clear
8:55 PM 75.6 °F - 63.7 °F 66% 29.83 in 10.0 mi South 6.9 mph - N/A   Clear
9:15 PM 74.3 °F - 62.6 °F 67% 29.83 in 10.0 mi South 8.1 mph - N/A   Clear
9:35 PM 74.1 °F - 62.8 °F 68% 29.83 in 10.0 mi SSW 6.9 mph - N/A   Clear
9:55 PM 73.4 °F - 62.2 °F 68% 29.84 in 10.0 mi SSW 6.9 mph - N/A   Clear
10:15 PM 73.0 °F - 62.6 °F 70% 29.84 in 10.0 mi South 8.1 mph - N/A   Clear
10:35 PM 73.0 °F - 62.6 °F 70% 29.84 in 10.0 mi SSW 8.1 mph - N/A   Clear
10:55 PM 73.0 °F - 62.6 °F 70% 29.84 in 10.0 mi SSW 8.1 mph - N/A   Scattered Clouds
11:15 PM 73.0 °F - 63.0 °F 71% 29.84 in 10.0 mi SSW 8.1 mph - N/A   Scattered Clouds
11:35 PM 73.0 °F - 63.5 °F 72% 29.83 in 10.0 mi South 6.9 mph - N/A   Clear
11:55 PM 73.0 °F - 63.9 °F 73% 29.83 in 10.0 mi South 6.9 mph - N/A   Scattered Clouds